Regional Weather Roundup
Issued by NWS Newport/Morehead, NC

Current Version | Previous Version | Graphics & Text | Print | Product List | Glossary Off
Versions: 1 2 3 4 5 6 7 8 9 10 11 12 13 14 15 16 17 18 19 20 21 22 23 24 25 26 27 28 29 30 31 32 33 34 35 36 37 38 39 40 41 42 43 44 45 46 47 48 49 50
000 ASUS42 KMHX 010110 RWRMHX WEATHER ROUNDUP FOR EASTERN NORTH CAROLINA NATIONAL WEATHER SERVICE NEWPORT/MOREHEAD CITY NC 800 PM EST SAT JAN 31 2015 NOTE: "FAIR" INDICATES FEW OR NO CLOUDS BELOW 12,000 FEET WITH NO SIGNIFICANT WEATHER AND/OR OBSTRUCTIONS TO VISIBILITY NCZ015>017-031-032-045>047-102-103-010200- NORTH COAST CITY SKY/WX TMP DP RH WIND PRES REMARKS EDENTON FAIR 31 22 69 CALM 30.33R ELIZABETH CITY FAIR 31 17 56 SW5 30.33R KITTY HAWK FAIR 34 20 56 W3 30.32R MANTEO FAIR 32 21 64 W3 30.34R $$ NCZ045>047-081-094-103-104-010200- CENTRAL COAST CITY SKY/WX TMP DP RH WIND PRES REMARKS FRISCO FAIR 29 20 69 CALM 30.35R SWANQUARTER N/A 34 N/A N/A W1 30.30S $$ NCZ095-097-098-100-101-010200- SOUTHERN COAST CITY SKY/WX TMP DP RH WIND PRES REMARKS BEAUFORT FAIR 31 22 69 CALM 30.36R CEDAR ISLAND N/A 32 N/A N/A S3 30.39S JACKSONVILLE FAIR 33 22 63 CALM 30.35R PINEY ISLAND N/A N/A N/A N/A MISG 30.35R WILMINGTON FAIR 37 24 59 CALM 30.35S $$ NCZ011>013-027>030-043-044-078>080-089-090>093-098-010200- COASTAL PLAIN CITY SKY/WX TMP DP RH WIND PRES REMARKS AHOSKIE FAIR 28 16 61 CALM 30.32S CLINTON FAIR 33 21 62 CALM 30.35R ELIZABETHTOWN FAIR 35 20 55 CALM 30.34R GOLDSBORO FAIR 33 20 59 CALM 30.31S GREENVILLE FAIR 32 21 64 CALM 30.33S HAVELOCK FAIR 31 21 66 CALM 30.36R KENANSVILLE FAIR 29 20 68 CALM 30.35R KINSTON FAIR 30 21 69 CALM 30.34S NEW BERN FAIR 32 17 54 S3 30.36R RICHLANDS FAIR 28 18 64 CALM 30.35S ROCKY MOUNT FAIR 28 19 69 CALM 30.32S WASHINGTON FAIR 31 15 51 CALM 30.33F WHITEVILLE FAIR 35 20 53 CALM 30.34S $$ AMZ130-135-150-152-154-156-158-170-250-252-270-ANZ085-086-088-633-658-670-010200- MARINE OBSERVATIONS STATION/POSITION TIME TEMP WIND PRES WAVE SWELL AIR SEA DIR/SP/G HT/PER HT/PER (UTC) (F) (DEG/KT/KT) (MB) (FT/S) (FT/S) CHESAPEAKE LIGHT 0000 36 300/ 11/ 11 1026.6 64 E VA BEACH 0100 39 48 310/ 19/ 23 1025.3 8/ 6 DUCK 0100 37 40 270/ 6/ 7 1026.0 2 E DUCK 0100 41 N/A 4/ 7 2/11 10 NE DUCK 0100 43 N/A 5/ 9 2/11 OREGON INLET 0100 36 39 250/ 5/ 7 1027.1 13E OREGON INLT 0100 45 N/A 6/11 2/11 HATTERAS CG 0100 40 41 300/ 6/ 8 1027.7 DIAMOND BUOY 0100 43 71 300/ 14/ 17 1027.1 5/10 3/10 17 S OCRACOKE NOT AVBL CAPE LOOKOUT 0000 42 260/ 4/ 5 1027.4 BEAUFORT LAB 0100 38 45 CALM 1026.8 27 SE WRIGHTSVLE NOT AVBL 5 SE WRIGHTSVLE 0000 45 51 210/ 10/ 12 1027.6 225 S CAPE HAT 0050 54 70 330/ 16/ 21 1027.0 11/ 8 10/ 8 41 SE CHARLESTON 0100 52 69 10/ 4/ 6 1028.2 4/11 3/11 $$

USA.gov is the U.S. government's official web portal to all federal, state and local government web resources and services.